Location: ???? ?????
(30.0052°N, 31.2891°E)
Time: 21:59:05
(UTC+00:00)

Nadezhda 1 Rocket - Pass Details

Date: 26 May 2022
Orbit: 940 x 1006 km, 83.0° (Epoch: 04 July)

Event Time Altitude Azimuth Distance (km) Brightness Sun altitude
Exits shadow 00:30:27 57° 261° (W) 1,167 4.1 -26.2°
Maximum altitude 00:30:51 58° 277° (W) 1,155 4.1 -26.2°
Drops below altitude 10° 00:37:05 10° 356° (N) 2,754 6.9 -25.3°
Sets 00:39:39 0° 0° (N) 3,697 7.7 -24.9°
